Location: Newark
(34.7667°N, 118.4167°W)
Time: 03:10:33
(UTC+00:00)

ISS - Visible Passes

Search period start: 16 October 2019 00:00
Search period end: 26 October 2019 00:00
Orbit: 411 x 421 km, 51.6° (Epoch: 16 October)

Date Brightness Start Highest point End Pass type
(mag) Time Alt. Az. Time Alt. Az. Time Alt. Az.
21 Oct -0.7 13:18:48 10° SSE 13:20:59 16° SE 13:23:10 10° E visible
23 Oct -3.0 13:17:02 10° SSW 13:20:20 55° SE 13:23:38 10° NE visible
24 Oct -1.8 12:29:56 16° S 12:31:52 27° SE 12:34:47 10° ENE visible
25 Oct -0.6 11:44:24 13° ESE 11:44:24 13° ESE 11:45:26 10° E visible
25 Oct -3.3 13:17:22 15° WSW 13:19:55 42° NW 13:23:08 10° NE visible
